Home   Weather   Gifhorn   Past weeks

Flag for Germany Past Weather in Gifhorn, Lower Saxony, Germany — Yesterday and Last 2 Weeks

Now
30 °F

Ice fog.


Feels Like: 30 °F
Forecast: 24 / 31 °F
Wind: 1 mph from Southwest

Location: Celle Airport

Current Time: Jan 24, 2017 at 6:28:21 am

Latest Report: Jan 24, 2017 at 5:20 am


Visibility: 0 mi

Pressure: 30.30 "Hg

Humidity: 100%

Dew Point: 30 °F

Location of GifhornLocation

Past Weather in Gifhorn — Graph

°F

Gifhorn Temperature Yesterday

Maximum temperature yesterday: 30 °F (at 1:06 pm)
Minimum temperature yesterday: 25 °F (at 2:20 am)
Average temperature yesterday: 28 °F

High & Low Weather Summary for the Past Weeks

 TemperatureHumidityPressure
High43 °F (Jan 12, 1:20 pm)100% (Jan 9, 4:20 am)30.74 "Hg (Jan 9, 4:20 am)
Low16 °F (Jan 16, 7:12 am)56% (Jan 19, 2:20 pm)28.94 "Hg (Jan 13, 5:20 am)
Average31 °F89%30.10 "Hg
* Reported Jan 9 4:20 am — Jan 24 4:48 am, Gifhorn, Weather by CustomWeather, © 2017

Note: Actual official high and low records may vary slightly from our data, if they occured in-between our weather recording intervals... More about our weather records

Advertising

Gifhorn Weather History for the Previous 24 Hours

Scroll right to see more
 ConditionsComfort  
Time TempWeatherWind HumidityBarometerVisibility
4:48 am
Tue, Jan 24
30 °FIce fog.No wind93%30.30 "Hg0 mi
4:20 am30 °FIce fog.No wind93%30.30 "Hg1 mi
3:50 am30 °FIce fog.No wind93%30.30 "Hg1 mi
3:20 am30 °FIce fog.2 mph93%30.30 "Hg1 mi
2:50 am30 °FIce fog.2 mph93%30.30 "Hg1 mi
2:20 am28 °FIce fog.3 mph100%30.30 "Hg1 mi
1:20 am30 °FIce fog.3 mph93%30.30 "Hg1 mi
12:20 am30 °FIce fog.1 mph93%30.30 "Hg1 mi
11:20 pm
Mon, Jan 23
30 °FIce fog.2 mph93%30.30 "Hg1 mi
10:20 pm30 °FIce fog.2 mph93%30.30 "Hg1 mi
9:20 pm30 °FIce fog.3 mph93%30.30 "Hg1 mi
8:20 pm30 °FIce fog.5 mph93%30.30 "Hg1 mi
7:20 pm30 °FIce fog.5 mph93%30.30 "Hg1 mi
6:20 pm30 °FIce fog.5 mph93%30.30 "Hg1 mi
5:20 pm30 °FIce fog.3 mph93%30.30 "Hg1 mi
4:20 pm30 °FIce fog.5 mph93%30.30 "Hg1 mi
3:20 pm28 °FIce fog.5 mph100%30.30 "Hg1 mi
2:20 pm28 °FLight snow. Ice fog.5 mph93%30.27 "Hg1 mi
1:20 pm30 °FSnow flurries. Ice fog.3 mph86%30.30 "Hg1 mi
1:06 pm30 °FSnow flurries. Ice fog.3 mph86%30.30 "Hg2 mi
12:20 pm28 °FSnow flurries. Ice fog.2 mph93%30.30 "Hg2 mi
11:20 am28 °FLight freezing rain. Ice fog.5 mph86%30.30 "Hg2 mi
10:20 am28 °FLight freezing rain. Ice fog.5 mph86%30.30 "Hg2 mi
9:20 am27 °FLight freezing rain. Ice fog.5 mph93%30.30 "Hg2 mi
8:20 am27 °FLight freezing rain. Ice fog.5 mph93%30.30 "Hg2 mi
8:06 am27 °FLight freezing rain. Ice fog.5 mph93%30.27 "Hg1 mi
7:20 am27 °FLight freezing rain. Ice fog.3 mph93%30.30 "Hg1 mi
6:33 am27 °FLight freezing rain. Ice fog.5 mph93%30.27 "Hg1 mi
Weather by CustomWeather, © 2017

See weather overviewHow to use our weather pages